CST,Max TemperatureF,Mean TemperatureF,Min TemperatureF,Max Dew PointF,MeanDew PointF,Min DewpointF,Max Humidity, Mean Humidity, Min Humidity, Max Sea Level PressureIn, Mean Sea Level PressureIn, Min Sea Level PressureIn, Max VisibilityMiles, Mean VisibilityMiles, Min VisibilityMiles, Max Wind SpeedMPH, Mean Wind SpeedMPH, Max Gust SpeedMPH,PrecipitationIn, CloudCover, Events, WindDirDegrees
2014-2-1,17,8,-4,9,1,-11,85,71,58,30.19,29.97,29.87,10,10,5,16,6,20,0.00,5,Snow,245
2014-2-2,12,-4,-20,1,-10,-27,85,73,57,30.25,30.20,30.15,10,10,10,12,3,,0.00,0,,188
2014-2-3,15,0,-16,7,-7,-22,85,73,53,30.34,30.21,30.13,10,10,4,10,1,,0.00,1,Snow,271
2014-2-4,6,-2,-11,-6,-9,-17,85,66,52,30.48,30.42,30.34,10,10,10,13,4,,0.00,1,,318
2014-2-5,3,-1,-7,-4,-10,-15,78,67,55,30.51,30.48,30.44,10,9,2,13,8,,0.00,2,Snow,293
2014-2-6,3,-5,-13,-6,-11,-18,85,72,56,30.43,30.29,30.15,10,10,5,15,6,21,0.00,1,,233
2014-2-7,12,2,-7,-6,-9,-15,85,65,41,30.14,30.10,30.08,10,10,4,14,6,17,0.00,0,Snow,211
2014-2-8,17,0,-18,7,-7,-26,85,76,62,30.15,30.09,30.06,10,10,7,6,1,,0.00,1,,272
2014-2-9,5,-1,-7,-4,-10,-17,84,66,52,30.36,30.26,30.15,10,10,3,14,8,17,0.00,1,,290
2014-2-10,3,-6,-16,-9,-16,-22,84,69,55,30.45,30.42,30.37,10,10,10,8,4,,0.00,0,,268
2014-2-11,14,-6,-25,9,-10,-33,84,67,52,30.42,30.21,29.99,10,9,2,18,5,28,0.00,3,Snow,159
2014-2-12,23,18,14,16,11,5,93,75,58,30.08,29.98,29.74,10,9,2,13,5,16,0.01,5,Snow,198
2014-2-13,28,16,3,23,11,-2,93,78,63,29.72,29.55,29.37,10,7,2,21,13,29,0.02,6,Snow,235
2014-2-14,15,6,-4,1,-3,-8,85,71,53,30.00,29.90,29.72,10,10,10,13,7,20,0.00,0,,285
2014-2-15,19,7,-5,12,4,-9,86,77,67,30.06,29.88,29.76,10,9,1,12,3,16,0.00,5,Snow,112
2014-2-16,21,12,3,12,6,1,92,71,58,30.22,30.10,29.94,10,9,2,14,7,16,0.00,3,Snow,86
2014-2-17,28,19,10,21,16,7,93,80,63,29.94,29.73,29.65,10,4,0,24,10,32,0.03,6,Fog-Snow,148
2014-2-18,39,26,12,27,21,10,93,76,56,29.74,29.60,29.51,10,9,0,13,5,16,0.09,0,Fog,233
2014-2-19,41,24,8,30,23,7,100,76,56,29.79,29.73,29.64,10,9,0,15,5,23,0.00,1,Fog,178
2014-2-20,37,26,15,32,27,10,93,83,70,29.64,29.48,29.30,10,5,0,22,9,32,0.05,6,Rain-Snow,26
2014-2-21,14,10,6,10,4,1,86,75,67,29.72,29.49,29.30,10,6,1,22,17,31,0.00,3,Snow,267
2014-2-22,14,8,1,1,-1,-4,85,70,57,30.09,29.92,29.73,10,10,10,15,10,21,0.00,0,,256
2014-2-23,15,8,0,3,-1,-6,78,68,53,30.23,30.17,30.09,10,10,10,17,9,25,0.00,0,,260
2014-2-24,12,4,-5,3,-4,-11,84,69,53,30.30,30.27,30.23,10,10,4,15,9,21,0.00,2,Snow,271
2014-2-25,3,-3,-9,-9,-13,-18,84,65,55,30.31,30.27,30.24,10,10,10,18,9,23,0.00,0,,270
2014-2-26,17,2,-13,5,-9,-20,77,61,47,30.30,29.87,29.58,10,9,3,28,10,36,0.00,1,Snow,252
2014-2-27,-5,-14,-23,-20,-26,-31,70,52,32,30.18,30.09,29.94,10,10,10,18,7,23,0.00,0,,297
2014-2-28,32,10,-11,3,-8,-20,78,63,52,30.16,29.95,29.86,10,10,7,14,5,17,0.00,4,,156